DELTA 1 DEB, 3812

Orbit data source: Space-Track

DELTA 1 DEB, 3812 is space debris in SSO originally from a launch on Sun, 15 Dec 1968 UTC launched from the Air Force Western Test Range (AFWTR). Debris objects in space refer to the collection of defunct objects orbiting the Earth. Examples of debris include non-operational satellites, rocket bodies, and fragments generated from explosions, collisions, or faulty payload assembly.

Loading next visibility...
Identifier
3812, 1968-114D
Orbit
SSO
Last TLE update
1 day ago
Origin
Manufacturer
Unknown
Mission
Spacecraft
Bus & Motor
Unknown
Mass
Unknown
Launch date (UTC)
1968-12-15 (56 years ago)
Launch vehicle
Unknown
Launch site
Air Force Western Test Range (AFWTR)
Object type
Payload
Rocket body
Debris
Shape & HBR
Unknown
Radar Cross Section
Small (<0.1 m²)

Expand to show TLE details & history

TLE from 1 day ago
0 DELTA 1 DEB
1 03812U 68114D   25127.93696263  .00000060  00000-0  81815-3 0  9997
2 03812 102.4553 137.7600 0071369 188.0941 237.9300 12.37777194547487
Epoch: 2025-05-07T22:29Z
Definitive object data (Epoch: 2025-05-07T22:29:13.571Z)
Latitude
62.63266°
Longitude
-90.68885°
Altitude
1,556.787 km
Speed
7.081 km/s
True Right ascension
07h 30m 31s
True Declination
62° 30' 22"
Sunlit
Object was in daylight at TLE epoch
Visualization TLE readout
Latitude
18.36198°
Longitude
120.04256°
Altitude
1,466.668 km
Speed
7.154 km/s
Apparent Right ascension
23h 56m 38s
Apparent Declination
-11° 01' 01"
Sunlit
Object is in daylight
Visualization observer readout
Local Sidereal Time
16:07:43
Azimuth
80.785° E
Elevation
-27.844°
Doppler factor
1
Orbital elements
Apogee altitude
1,569.968 km
Perigee altitude
1,457.322 km
Semi-major axis
7,891.782 km
Eccentricity
0.0071369
Inclination
102.4553°
RAAN
137.76°
Arg. of periapsis
188.0941°
True anomaly
237.24026°
Mean anomaly
237.93°
Eccentric anomaly
237.5848°
Mean motion
3.09585 °/min
BSTAR
0.00081815
Orbital period
116.28 mins
Loading maneuver chart data...
Loading SW <> Apogee altitude chart data...
Loading historical data...
Loading historical data...
Loading historical data...
Loading historical data...
Loading historical data...
Loading historical data...
Loading historical data...

DELTA 1 DEB Visibility forecast

Observer location: undefined°, undefined°

Span
Click to sort rows by Start time (UTC) header in descending order
Start Az.
Max El. time (UTC)
Max El. Az.
Max El.
End time (UTC)
End Az.
8 mins2025-05-09 11:41:38.424Z60.825° ENE2025-05-09 11:45:38.424Z90.318° ESE14.056°2025-05-09 11:49:38.424Z119.912° SE
15 mins2025-05-09 13:33:38.424Z20.935° NNE2025-05-09 13:40:38.424Z85.393° E44.575°2025-05-09 13:48:38.424Z195.476° SSW
10 mins2025-05-09 15:29:38.424Z345.849° N2025-05-09 15:33:38.424Z311.402° NW22.385°2025-05-09 15:39:38.424Z261.671° W
13 mins2025-05-09 22:47:38.424Z104.757° ESE2025-05-09 22:53:38.424Z54.15° ENE26.34°2025-05-09 23:00:38.424Z0.007° NNE
15 mins2025-05-10 00:39:38.424Z172.303° S2025-05-10 00:46:38.424Z242.047° WSW43.168°2025-05-10 00:54:38.424Z336.124° NNW
4 mins2025-05-10 02:40:38.424Z259.708° W2025-05-10 02:42:38.424Z273.767° WNW11.921°2025-05-10 02:44:38.424Z287.632° WNW
|